[[{"header":{"parameterUnit":"m.s-1","parameterCategory":1,"la1":30.2991,"la2":30.254,"lo1":-89.0895,"lo2":-89.0444,"dy":0.0017,"dx":0.0017,"nx":28,"ny":28,"refTime":"2025-09-19T03:00:00:Z","depth":0,"parameterNumber":2,"parameterNumberName":"U-component_of_WINDS"},"data":[0,0,0,0,0,0,0,0,0,0,0,0,0,0,0,0,0,0,0,0,0,0,0,0,0,0,0,0,0,0,0,0,0,0,0,0,0,0,0,0,0,0,0,0,0,0,0,0,0,0,0,0,0,0,0,0,0,0,0.9835,0.9836,0,0.9874,0.9874,0.9875,0.9873,0.9872,0.9872,0.9871,0.991,0.9911,0.9913,0,0,0,0,0,0,0,0,0,0,0,0,0,0.9759,0.9761,0.9835,0.9836,0.9836,0.9874,0.9874,0.9875,0.9873,0.9872,0.9871,0.9871,0.9909,0.9911,0.9913,0,0,0,0,0,0,0,0,0,0,0,0,0,0.9794,0.9761,0.9835,0.984,0.9841,0.9874,0.9874,0.9875,0.9873,0.9872,0.9871,0.987,0.9909,0.9911,0.9913,0.9944,0,0,0.992,0.9921,0,0,0,0,0,0,0,0,0.9792,0.9797,0.9839,0.984,0.984,0.9868,0.9862,0.9898,0.9873,0.9861,0.9871,0.987,0.9896,0.99,0.9909,0.9946,0.9947,0.992,0.9922,0.9923,0.9924,0,0,0,0,0,0,0,0.979,0.9795,0.985,0.9839,0.984,0.984,0.9844,0.9868,0.9883,0.9862,0.9862,0.9866,0.9897,0.9906,0.991,0.9948,0.992,0.9922,0.9924,0.9925,1.0011,1.0012,0,0,0,0,0,0,0.9787,0.9793,0.9849,0.9852,0.9814,0.9842,0.9846,0.986,0.9882,0.9885,0.9867,0.9866,0.9903,0.9907,0.9911,0.9947,0.9923,0.9925,0.9926,1.001,1.0011,1.0012,0,0,0,0,0,0,0.9785,0.9792,0.9848,0.9823,0.983,0.9844,0.9859,0.9861,0.9871,0.9886,0.9889,0.9874,0.9902,0.9908,0.9936,0.9949,0.9926,0.9928,1.0009,1.0011,1.0012,1.0021,0,0,0,0,0,0,0.9783,0.9791,0.9803,0.9823,0.9831,0.9872,0.986,0.9862,0.9875,0.9874,0.9894,0.9896,0.9902,0.9932,0.9938,0.9952,0.993,1.0008,1.001,1.0011,1.002,1.0023,1.0025,0,0,0,0,0,0.978,0.9804,0.9804,0.981,0.9846,0.9873,0.9877,0.9884,0.9876,0.9888,0.9898,0.9896,0.9947,0.9935,0.9941,0.9956,1.0007,1.0009,1.0011,1.0019,1.0022,1.0025,0,0,0,0,0,0,0.9786,0.9807,0.9807,0.9838,0.9854,0.9872,0.9888,0.9888,0.9906,0.9904,0.9911,0.9915,0.9943,0.9953,0.9939,0.9986,0.9976,0.9979,0.9979,0.9983,0.9985,0.9982,0.9932,0,0,0,0,0,0.9791,0.9811,0.9828,0.9854,0.9862,0.9874,0.9885,0.9889,0.9905,0.9912,0.9924,0.9939,0.9959,0.9971,0.999,1.0022,1.0025,1.0035,1.0037,1.004,1.0042,1.0058,1.0062,1.0019,1.0019,1.0019,0,0,0.9801,0.9815,0.9827,0.9856,0.9868,0.9888,0.9879,0.9901,0.9915,0.9915,0.9942,0.9951,0.9969,0.9998,1.0012,1.0007,1.0055,1.0042,1.0044,1.0045,1.0061,1.0065,1.0069,1.002,1.002,1.002,0,0,0.983,0.9843,0.9865,0.9878,0.9897,0.9905,0.991,0.9929,0.9935,0.9962,0.9962,0.9979,1.0013,1.0026,1.0036,1.0069,1.0068,1.0075,1.0089,1.0105,1.0108,1.0111,1.0122,1.0126,1.0078,1.0078,1.0078,0,0.984,0.987,0.9877,0.9899,0.9911,0.9911,0.9934,0.9946,0.997,0.9978,0.9972,1.0014,1.0026,1.0058,1.0066,1.0075,1.0081,1.0073,1.0107,1.0111,1.0114,1.0124,1.0128,1.0079,1.0079,1.0079,1.0079,0,0.9881,0.9902,0.9918,0.9941,0.9955,0.9978,0.9987,1.0,1.0003,1.0011,1.0038,1.0053,1.0074,1.0082,1.0085,1.0114,1.011,1.0106,1.0095,1.0118,1.0128,1.0132,1.008,1.008,1.0079,1.0079,0,0,0.9914,0.9941,0.9946,0.9956,0.9977,0.9994,1.0015,1.0036,1.0047,1.0064,1.0082,1.011,1.0106,1.0118,1.0122,1.0136,1.016,1.013,1.0131,1.0134,1.0192,1.0194,1.0199,1.016,1.016,1.0161,1.019,0,0.9944,0.9983,0.999,1.0023,1.0042,1.0043,1.0062,1.0076,1.0084,1.0101,1.011,1.0129,1.0123,1.0131,1.0144,1.0154,1.0171,1.0152,1.0175,1.0176,1.017,1.0204,1.0207,1.0234,1.0194,1.0195,1.0195,0,0.9984,1.0002,1.0037,1.0055,1.0063,1.008,1.0099,1.0116,1.0132,1.0137,1.015,1.0153,1.0175,1.0164,1.0194,1.018,1.019,1.0196,1.0198,1.0199,1.0186,1.0206,1.0243,1.0246,1.0202,1.0201,1.0201,0,1.0003,1.0036,1.0061,1.007,1.0091,1.0103,1.0112,1.0128,1.014,1.0157,1.0164,1.0184,1.0194,1.0209,1.0216,1.0208,1.0245,1.0235,1.0249,1.0249,1.0256,1.0256,1.0294,1.0265,1.0265,1.0264,1.0264,0,1.0036,1.0057,1.007,1.0085,1.0109,1.0116,1.0139,1.0148,1.0162,1.0179,1.0181,1.0197,1.0206,1.0223,1.0229,1.0252,1.0257,1.0261,1.0262,1.026,1.026,1.0266,1.0264,1.0266,1.0265,1.0265,1.0265,0,1.006,1.007,1.0097,1.0115,1.012,1.0137,1.0152,1.0167,1.0175,1.0196,1.0201,1.0214,1.0234,1.0242,1.0267,1.0271,1.0297,1.0298,1.0292,1.0292,1.0305,1.0303,1.0348,1.0354,1.0322,1.0322,1.0322,0,1.008,1.0096,1.0116,1.0127,1.0137,1.0155,1.0167,1.0175,1.0188,1.0207,1.0219,1.0239,1.0256,1.0287,1.0298,1.0317,1.0317,1.0332,1.032,1.0317,1.0316,1.0315,1.0316,1.0334,1.0334,1.0334,1.0334,0,1.0113,1.0117,1.0134,1.0153,1.0167,1.0183,1.0198,1.0207,1.0217,1.0231,1.0251,1.0263,1.0288,1.0308,1.0327,1.0337,1.0337,1.0338,1.0342,1.034,1.0335,1.0337,1.0296,1.0337,1.0337,1.0336,1.0336,1.0336,1.0135,1.0149,1.0165,1.0184,1.0196,1.021,1.0224,1.0234,1.0251,1.0272,1.0275,1.0297,1.0312,1.0338,1.0348,1.0365,1.0361,1.0367,1.0369,1.037,1.037,1.0333,1.0369,1.0369,1.0368,1.0368,1.0368,0,1.0167,1.0177,1.0195,1.0215,1.023,1.0229,1.0246,1.0258,1.0277,1.0291,1.0307,1.033,1.0349,1.0362,1.0381,1.0391,1.0392,1.0396,1.0395,1.0397,1.0373,1.0367,1.0395,1.0395,1.0395,1.0395,1.0395,1.0395,1.0185,1.0209,1.0214,1.0244,1.0254,1.0275,1.0284,1.0297,1.0308,1.0333,1.0349,1.0357,1.0371,1.0391,1.0408,1.0411,1.0417,1.0421,1.0424,1.0401,1.0398,1.0396,1.039,1.0423,1.0423,1.0446,1.0447,1.0447]},{"header":{"parameterUnit":"m.s-1","parameterCategory":1,"la1":30.2991,"la2":30.254,"lo1":-89.0895,"lo2":-89.0444,"dy":0.0017,"dx":0.0017,"nx":28,"ny":28,"refTime":"2025-09-19T03:00:00:Z","depth":0,"parameterNumber":3,"parameterNumberName":"V-component_of_WINDS"},"data":[0,0,0,0,0,0,0,0,0,0,0,0,0,0,0,0,0,0,0,0,0,0,0,0,0,0,0,0,0,0,0,0,0,0,0,0,0,0,0,0,0,0,0,0,0,0,0,0,0,0,0,0,0,0,0,0,0,0,-1.1656,-1.1656,0,-1.1682,-1.1682,-1.1682,-1.1724,-1.1725,-1.1725,-1.1726,-1.1752,-1.1752,-1.1752,0,0,0,0,0,0,0,0,0,0,0,0,0,-1.164,-1.1641,-1.1655,-1.1656,-1.1656,-1.1682,-1.1682,-1.1683,-1.1724,-1.1725,-1.1726,-1.1726,-1.1752,-1.1752,-1.1752,0,0,0,0,0,0,0,0,0,0,0,0,0,-1.1655,-1.1641,-1.1655,-1.168,-1.1682,-1.1682,-1.1682,-1.1683,-1.1723,-1.1725,-1.1726,-1.1727,-1.1752,-1.1752,-1.1752,-1.1729,0,0,-1.1752,-1.1752,0,0,0,0,0,0,0,0,-1.1654,-1.1655,-1.1676,-1.1678,-1.1681,-1.1701,-1.1686,-1.1698,-1.1723,-1.1708,-1.1726,-1.1727,-1.1734,-1.1735,-1.1738,-1.1731,-1.1732,-1.1752,-1.1752,-1.1752,-1.1752,0,0,0,0,0,0,0,-1.1653,-1.1654,-1.1666,-1.1676,-1.1679,-1.1689,-1.1693,-1.1689,-1.1714,-1.1709,-1.1712,-1.1715,-1.1735,-1.1738,-1.1739,-1.1732,-1.1752,-1.1752,-1.1752,-1.1752,-1.1708,-1.1707,0,0,0,0,0,0,-1.1648,-1.1653,-1.1665,-1.1667,-1.167,-1.1689,-1.1692,-1.1693,-1.1714,-1.1719,-1.1714,-1.1717,-1.1737,-1.1739,-1.174,-1.1715,-1.1752,-1.1752,-1.1752,-1.1709,-1.1708,-1.1706,0,0,0,0,0,0,-1.1648,-1.1649,-1.1664,-1.1661,-1.1664,-1.1688,-1.1688,-1.1693,-1.1695,-1.1718,-1.1723,-1.1712,-1.1738,-1.174,-1.1732,-1.1716,-1.1752,-1.1752,-1.171,-1.1709,-1.1707,-1.1664,0,0,0,0,0,0,-1.1647,-1.1649,-1.164,-1.166,-1.1664,-1.1655,-1.1687,-1.1693,-1.1695,-1.1699,-1.1717,-1.1721,-1.1739,-1.1732,-1.1732,-1.1717,-1.1752,-1.1712,-1.171,-1.1708,-1.1667,-1.1661,-1.1656,0,0,0,0,0,-1.1647,-1.1627,-1.164,-1.1641,-1.1654,-1.1654,-1.1656,-1.1678,-1.1694,-1.1686,-1.17,-1.172,-1.1718,-1.173,-1.1731,-1.1716,-1.1713,-1.171,-1.1708,-1.1669,-1.1662,-1.1656,0,0,0,0,0,0,-1.1604,-1.163,-1.1644,-1.163,-1.164,-1.1661,-1.1651,-1.167,-1.1674,-1.1678,-1.1704,-1.1708,-1.1696,-1.1706,-1.1719,-1.1695,-1.1719,-1.1716,-1.1689,-1.1683,-1.1677,-1.1675,-1.1752,0,0,0,0,0,-1.1593,-1.1591,-1.1614,-1.16,-1.1604,-1.1627,-1.1628,-1.1644,-1.1655,-1.1659,-1.1673,-1.1682,-1.1684,-1.1684,-1.1687,-1.1669,-1.1673,-1.1659,-1.1653,-1.1649,-1.1646,-1.1637,-1.1631,-1.1698,-1.1698,-1.1698,0,0,-1.1569,-1.1584,-1.1581,-1.1591,-1.1601,-1.1598,-1.163,-1.1626,-1.1624,-1.1658,-1.1651,-1.1662,-1.1674,-1.1661,-1.1656,-1.1668,-1.1628,-1.1645,-1.1642,-1.1641,-1.1634,-1.1627,-1.1621,-1.1696,-1.1696,-1.1697,0,0,-1.1526,-1.1537,-1.1526,-1.1535,-1.1549,-1.1564,-1.1562,-1.1581,-1.1589,-1.1583,-1.1608,-1.1607,-1.1609,-1.1617,-1.1621,-1.1582,-1.16,-1.1582,-1.1553,-1.1544,-1.1538,-1.1534,-1.1519,-1.1514,-1.1579,-1.1579,-1.1579,0,-1.1495,-1.1493,-1.1518,-1.1513,-1.1516,-1.1548,-1.1537,-1.1544,-1.1558,-1.156,-1.1574,-1.1577,-1.1588,-1.1577,-1.1567,-1.157,-1.1567,-1.1579,-1.1537,-1.1533,-1.1529,-1.1515,-1.151,-1.1577,-1.1577,-1.1577,-1.1577,0,-1.1454,-1.1453,-1.1442,-1.1455,-1.1458,-1.145,-1.1473,-1.1473,-1.1489,-1.1503,-1.1497,-1.1511,-1.1517,-1.1516,-1.1531,-1.1507,-1.1514,-1.1533,-1.1556,-1.152,-1.1507,-1.1502,-1.1573,-1.1574,-1.1575,-1.1575,0,0,-1.1383,-1.1411,-1.1406,-1.1413,-1.1431,-1.143,-1.1423,-1.143,-1.1429,-1.1438,-1.1432,-1.1434,-1.1451,-1.1456,-1.1473,-1.1465,-1.1433,-1.1484,-1.1485,-1.1473,-1.1406,-1.1392,-1.1385,-1.1446,-1.1445,-1.1444,-1.1405,0,-1.1342,-1.1332,-1.1355,-1.134,-1.1338,-1.1369,-1.1363,-1.1374,-1.1387,-1.1388,-1.1403,-1.1403,-1.1426,-1.1429,-1.1423,-1.1438,-1.1419,-1.1441,-1.1441,-1.144,-1.1435,-1.1379,-1.1363,-1.1325,-1.14,-1.14,-1.1399,0,-1.1293,-1.13,-1.1284,-1.1304,-1.1304,-1.1298,-1.1306,-1.1307,-1.1319,-1.133,-1.1335,-1.1356,-1.1351,-1.1375,-1.1368,-1.1383,-1.1384,-1.1392,-1.1391,-1.139,-1.1416,-1.1376,-1.1314,-1.1308,-1.1392,-1.1392,-1.1393,0,-1.1241,-1.1246,-1.1238,-1.1242,-1.1265,-1.1261,-1.127,-1.1284,-1.1286,-1.1293,-1.1295,-1.1302,-1.1305,-1.1309,-1.1331,-1.1346,-1.1321,-1.1347,-1.1329,-1.1328,-1.1321,-1.1321,-1.1257,-1.1324,-1.1324,-1.1324,-1.1324,0,-1.1192,-1.1181,-1.1215,-1.1209,-1.1198,-1.1225,-1.1213,-1.1225,-1.1238,-1.1235,-1.1262,-1.1259,-1.1289,-1.1289,-1.1306,-1.1297,-1.1299,-1.1307,-1.1311,-1.1303,-1.1302,-1.1304,-1.1306,-1.1323,-1.1323,-1.1323,-1.1323,0,-1.1132,-1.1154,-1.1146,-1.1169,-1.1174,-1.1165,-1.1184,-1.118,-1.1196,-1.1192,-1.1193,-1.1218,-1.1219,-1.1242,-1.1248,-1.126,-1.1244,-1.1254,-1.124,-1.1242,-1.1223,-1.1224,-1.1156,-1.1149,-1.1221,-1.1221,-1.122,0,-1.1098,-1.1091,-1.1113,-1.1113,-1.1121,-1.1121,-1.1124,-1.1151,-1.1153,-1.1167,-1.1161,-1.1165,-1.117,-1.1171,-1.119,-1.1195,-1.1205,-1.1181,-1.1205,-1.1198,-1.1203,-1.1203,-1.1202,-1.1175,-1.1174,-1.1173,-1.1172,0,-1.1037,-1.1048,-1.1051,-1.1059,-1.1061,-1.1068,-1.1077,-1.1076,-1.1105,-1.1106,-1.1108,-1.1112,-1.1119,-1.1122,-1.1131,-1.1141,-1.1161,-1.1165,-1.1161,-1.1152,-1.1144,-1.1147,-1.1224,-1.1166,-1.1167,-1.1167,-1.1167,-1.1168,-1.0988,-1.0982,-1.0997,-1.1,-1.101,-1.1017,-1.1014,-1.103,-1.1033,-1.1041,-1.1056,-1.1056,-1.107,-1.1084,-1.1092,-1.1092,-1.1104,-1.1099,-1.1097,-1.1095,-1.109,-1.1145,-1.1094,-1.1094,-1.1094,-1.1095,-1.1095,0,-1.0927,-1.0938,-1.094,-1.0952,-1.0954,-1.0974,-1.0985,-1.0986,-1.0985,-1.0996,-1.1001,-1.1003,-1.1007,-1.1027,-1.1033,-1.1029,-1.1039,-1.103,-1.1029,-1.1031,-1.1079,-1.1082,-1.1022,-1.1022,-1.1022,-1.1022,-1.1022,-1.1022,-1.0895,-1.0887,-1.09,-1.0897,-1.0909,-1.0909,-1.0913,-1.0921,-1.093,-1.0932,-1.0935,-1.0948,-1.0962,-1.097,-1.0974,-1.098,-1.098,-1.0968,-1.0976,-1.1021,-1.1028,-1.1034,-1.1037,-1.0968,-1.0968,-1.0928,-1.0928,-1.0928]}]]